Weather History for Westfield, MA

Change the Weather History Date:

Sunday, February 17, 2013

  Actual Average Record
Temperature  
Mean Temperature 22 °F -  
Max Temperature 28 °F 35 °F 55 °F (2011)
Min Temperature 15 °F 17 °F 1 °F (2014)
Degree Days  
Heating Degree Days 44    
Moisture  
Dew Point 2 °F    
Average Humidity 42    
Maximum Humidity 49    
Minimum Humidity 36    
Precipitation  
Precipitation 0.00 in - - ()
Sea Level Pressure  
Sea Level Pressure 29.66 in    
Wind  
Wind Speed 17 mph (NNW)    
Max Wind Speed 28 mph    
Max Gust Speed 40 mph    
Visibility 10 miles    
Events      
Averages and records for this station are not official NWS values.
T = Trace of Precipitation, MM = Missing Value Source: NWS Daily Summary

Daily Weather History Graph

Daily Weather History Graph

Search for Another Location

Airport:

Trip Planner

Search our weather history database for the weather conditions in past years. The results will help you decide how hot, cold, wet, or windy it might be!

Date:

Astronomy

Feb. 17, 2013 Rise Set
Actual Time 6:43 AM EST 5:26 PM EST
Civil Twilight 6:15 AM EST 5:54 PM EST
Nautical Twilight 5:42 AM EST 6:27 PM EST
Astronomical Twilight 5:10 AM EST 7:00 PM EST
Moon 10:26 AM EST (2/17) 12:27 AM EST (2/17)
Length of Visible Light 11h 39m
Length of Day
10h 42m
Waxing Crescent, 49% of the Moon is Illuminated
Feb 17
Waxing Crescent
Feb 17
First Quarter
Feb 25
Full
Mar 4
Last Quarter
Mar 11
New

Hourly Weather History & Observations

Time (EST) Temp. Windchill Dew Point Humidity Pressure Visibility Wind Dir Wind Speed Gust Speed Precip Events Conditions
12:53 AM 28.0 °F 16.1 °F 5.0 °F 38% 29.72 in 10.0 mi NNE 16.1 mph 21.9 mph N/A   Overcast
1:53 AM 27.0 °F 16.1 °F 5.0 °F 39% 29.74 in 10.0 mi NNE 12.7 mph 18.4 mph N/A   Overcast
2:53 AM 26.1 °F 13.1 °F 5.0 °F 41% 29.69 in 10.0 mi North 17.3 mph 25.3 mph N/A   Overcast
3:53 AM 26.1 °F 15.6 °F 3.9 °F 39% 29.69 in 10.0 mi NNE 11.5 mph - N/A   Overcast
4:53 AM 25.0 °F 11.3 °F 3.9 °F 41% 29.66 in 10.0 mi North 18.4 mph - N/A   Overcast
5:53 AM 24.1 °F 11.0 °F 3.9 °F 42% 29.64 in 10.0 mi North 16.1 mph - N/A   Overcast
6:53 AM 23.0 °F 10.6 °F 3.9 °F 44% 29.62 in 10.0 mi NNW 13.8 mph 21.9 mph N/A   Overcast
7:53 AM 21.9 °F 9.2 °F 3.0 °F 44% 29.61 in 10.0 mi NNW 13.8 mph 20.7 mph N/A   Overcast
8:53 AM 19.9 °F 3.9 °F 3.0 °F 48% 29.60 in 10.0 mi NNW 20.7 mph 31.1 mph N/A   Overcast
9:53 AM 21.0 °F 4.6 °F 1.9 °F 44% 29.57 in 9.0 mi NNW 23.0 mph 38.0 mph N/A   Partly Cloudy
10:53 AM 21.9 °F 6.5 °F 3.0 °F 44% 29.57 in 10.0 mi NW 20.7 mph 31.1 mph N/A   Clear
11:53 AM 23.0 °F 8.0 °F 3.0 °F 42% 29.56 in 10.0 mi NNW 20.7 mph 34.5 mph N/A   Clear
12:53 PM 25.0 °F 13.1 °F 3.0 °F 39% 29.56 in 10.0 mi NW 13.8 mph 40.3 mph N/A   Clear
1:53 PM 27.0 °F 12.5 °F 3.0 °F 36% 29.56 in 10.0 mi WNW 23.0 mph 39.1 mph N/A   Clear
2:53 PM 25.0 °F 12.2 °F 3.9 °F 41% 29.58 in 10.0 mi WNW 16.1 mph 34.5 mph N/A   Clear
3:53 PM 25.0 °F 8.6 °F 1.0 °F 36% 29.60 in 10.0 mi West 27.6 mph 34.5 mph N/A   Clear
4:53 PM 23.0 °F 6.9 °F -0.0 °F 37% 29.64 in 10.0 mi WNW 24.2 mph 36.8 mph N/A   Clear
5:53 PM 19.9 °F 5.7 °F -0.0 °F 42% 29.70 in 10.0 mi NW 16.1 mph 23.0 mph N/A   Clear
6:53 PM 19.0 °F 2.4 °F 1.0 °F 46% 29.73 in 10.0 mi NW 21.9 mph 40.3 mph N/A   Clear
7:53 PM 17.1 °F 0.1 °F -0.0 °F 47% 29.75 in 10.0 mi NW 20.7 mph 29.9 mph N/A   Clear
8:53 PM 16.0 °F 0.1 °F -0.9 °F 47% 29.78 in 10.0 mi NW 17.3 mph 34.5 mph N/A   Clear
9:53 PM 15.1 °F -2.9 °F -0.9 °F 49% 29.79 in 10.0 mi NW 21.9 mph 33.4 mph N/A   Clear
10:53 PM 15.1 °F -0.6 °F -0.9 °F 49% 29.81 in 10.0 mi NW 16.1 mph 26.5 mph N/A   Clear